This demonstration page uses our WeatherBlox Daily Observations layout. Learn more.

Left ArrowRight Arrow

39.51506, -84.39828

Hourly Observations for June 3, 2016

Temp ( °F °C ) Dew Point ( °F °C ) Humidity (%) Winds ( mph kmh ) Pressure ( in mb ) Visibility ( mi km ) Precip ( " mm )
12:15 am 00:15 Hazy 69 20.8 64 17.8 83 83 N N/A 30.03 1017 4 6 N/A
12:35 am 00:35 Hazy 69 20.8 64 17.9 84 84 SSW 5 7 30.03 1017 3 5 N/A
12:55 am 00:55 Cloudy with Haze 69 20.8 64 18 84 84 SW 5 7 30.03 1017 2 3 N/A
1:15 am 01:15 Cloudy with Haze 69 20.8 64 18 84 84 SSW 3 6 30.03 1017 3 4 N/A
1:35 am 01:35 Cloudy with Haze 69 20.8 64 18 84 84 SSW 6 9 30.03 1017 3 5 N/A
1:55 am 01:55 Cloudy with Haze 69 20.8 64 18 84 84 S 6 9 30.03 1017 4 6 N/A
2:15 am 02:15 Cloudy with Haze 69 20.8 64 18 84 84 SSW 7 11 30.03 1017 4 6 N/A
2:35 am 02:35 Cloudy with Haze 69 20.8 64 18 84 84 SSW 5 7 30.03 1017 4 6 N/A
2:55 am 02:55 Cloudy with Haze 69 20.8 64 18 84 84 N N/A 30.03 1017 3 5 N/A
3:15 am 03:15 Cloudy with Haze 69 20.8 64 18 84 84 SSW 6 9 30.03 1017 3 5 N/A
3:35 am 03:35 Cloudy with Haze 69 20.8 64 18 84 84 SW 5 7 30.03 1017 3 5 N/A
3:55 am 03:55 Cloudy with Haze 69 20.8 64 18 84 84 SW 5 7 30.03 1017 3 5 N/A
4:15 am 04:15 Cloudy with Haze 69 20.8 64 18 84 84 SSW 5 7 30.03 1017 3 4 N/A
4:35 am 04:35 Cloudy with Haze 69 20.8 64 18 84 84 SW 3 6 30.00 1016 2 3 N/A
4:55 am 04:55 Cloudy with Haze 69 20.8 64 18 84 84 WSW 5 7 30.03 1017 3 4 N/A
5:15 am 05:15 Cloudy with Haze 69 20.8 64 18 84 84 SW 3 6 30.03 1017 4 6 N/A
5:35 am 05:35 Cloudy with Haze 69 20.8 64 18 84 84 SSW 3 6 30.03 1017 5 8 N/A
5:55 am 05:55 Cloudy with Haze 69 20.8 64 17.8 83 83 N N/A 30.03 1017 5 8 N/A
6:15 am 06:15 Mostly Cloudy with Haze 69 20.8 64 17.8 83 83 N N/A 30.03 1017 4 6 N/A
6:35 am 06:35 Mostly Cloudy with Haze 67 19.5 62 16.5 83 83 N N/A 30.03 1017 3 5 N/A
6:55 am 06:55 Cloudy with Haze 69 20.8 64 17.8 83 83 N N/A 30.03 1017 3 5 N/A
7:15 am 07:15 Cloudy with Haze 69 20.8 64 17.8 83 83 N N/A 30.03 1017 4 6 N/A
7:35 am 07:35 Cloudy with Haze 69 20.8 64 17.5 82 82 N N/A 30.06 1018 5 8 N/A
7:55 am 07:55 Cloudy with Haze 69 20.8 63 17 79 79 N N/A 30.06 1018 5 8 N/A
8:15 am 08:15 Cloudy with Haze 69 20.8 62 16.6 77 77 N N/A 30.06 1018 5 8 N/A
8:35 am 08:35 Cloudy with Haze 69 20.8 62 16.4 76 76 N N/A 30.06 1018 5 8 N/A
8:55 am 08:55 Mostly Cloudy with Haze 69 20.8 61 16.1 75 75 N N/A 30.06 1018 5 8 N/A
9:15 am 09:15 Hazy 71 21.6 62 16.5 73 73 N N/A 30.06 1018 5 8 N/A
9:35 am 09:35 Sunny 73 22.7 62 16.8 69 69 N N/A 30.06 1018 7 11 N/A
9:55 am 09:55 Sunny 74 23.6 63 17.2 67 67 N N/A 30.06 1018 7 11 N/A
10:15 am 10:15 Sunny 74 23.6 61 16.3 64 64 N N/A 30.06 1018 10 16 N/A
10:35 am 10:35 Sunny 74 23.6 60 15.5 61 61 NNE 3 6 30.06 1018 10 16 N/A
10:55 am 10:55 Sunny 77 25.1 61 16.2 58 58 N N/A 30.06 1018 10 16 N/A
11:15 am 11:15 Sunny 77 25.1 60 15.7 56 56 N N/A 30.06 1018 10 16 N/A
11:35 am 11:35 Sunny 77 25.1 58 14.7 53 53 N N/A 30.06 1018 10 16 N/A
11:55 am 11:55 Sunny 80 26.5 59 14.9 49 49 N N/A 30.06 1018 10 16 N/A
12:15 pm 12:15 Sunny 80 26.7 56 13.6 44 44 N N/A 30.06 1018 10 16 N/A
12:35 pm 12:35 Sunny 80 26.5 53 11.9 40 40 N N/A 30.06 1018 10 16 N/A
12:55 pm 12:55 Sunny 82 27.5 55 12.9 41 41 NE 3 6 30.06 1018 10 16 N/A
1:15 pm 13:15 Sunny 82 28 42 5.7 24 24 N N/A 30.06 1018 10 16 N/A
1:35 pm 13:35 Sunny 83 28.5 42 5.3 23 23 N N/A 30.06 1018 10 16 N/A
1:55 pm 13:55 Sunny 84 28.8 44 6.4 24 24 E 3 6 30.00 1016 10 16 N/A
2:15 pm 14:15 Sunny 84 28.8 46 8 27 27 WSW 6 9 30.00 1016 10 16 N/A
2:35 pm 14:35 Sunny 83 28.6 41 4.9 22 22 SW 3 6 30.00 1016 10 16 N/A
2:55 pm 14:55 Partly Cloudy 83 28.6 45 7.4 26 26 NW 3 6 30.00 1016 10 16 N/A
3:15 pm 15:15 Partly Cloudy 83 28.2 45 7.3 27 27 SW 6 9 30.03 1017 10 16 N/A
3:35 pm 15:35 Partly Cloudy 84 28.9 46 7.8 27 27 WSW 6 9 29.97 1015 10 16 N/A
3:55 pm 15:55 Sunny 87 30.6 44 6.5 22 22 N N/A 29.97 1015 10 16 N/A
4:15 pm 16:15 Sunny 85 29.5 44 6.8 24 24 SSW 6 9 29.97 1015 10 16 N/A
4:35 pm 16:35 Partly Cloudy 85 29.3 44 6.6 24 24 SSW 5 7 29.97 1015 10 16 N/A
4:55 pm 16:55 Partly Cloudy 84 28.8 44 6.6 25 25 N N/A 29.97 1015 10 16 N/A
5:15 pm 17:15 Partly Cloudy 83 28.3 47 8.4 29 29 SSW 3 6 29.97 1015 10 16 N/A
5:35 pm 17:35 Partly Cloudy 83 28.6 46 7.7 27 27 SW 3 6 29.97 1015 10 16 N/A
5:55 pm 17:55 Sunny 83 28.6 44 6.9 25 25 N N/A 29.94 1014 10 16 N/A
6:15 pm 18:15 Partly Cloudy 82 28 48 8.8 30 30 WSW 3 6 29.94 1014 10 16 N/A
6:35 pm 18:35 Partly Cloudy 83 28.4 47 8.5 29 29 SSW 6 9 29.94 1014 10 16 N/A
6:55 pm 18:55 Sunny 82 28 47 8.5 29 29 SSW 6 9 29.94 1014 10 16 N/A
7:15 pm 19:15 Sunny 81 27.3 52 10.9 36 36 SW 6 9 29.97 1015 10 16 N/A
7:35 pm 19:35 Sunny 80 26.7 51 10.4 36 36 SSW 7 11 30.00 1016 10 16 N/A
7:55 pm 19:55 Sunny 80 26.5 53 11.9 40 40 SSW 8 13 30.00 1016 10 16 N/A
8:15 pm 20:15 Sunny 80 26.5 56 13.4 44 44 SW 6 9 30.00 1016 10 16 N/A
8:35 pm 20:35 Sunny 77 25.1 55 12.8 46 46 SW 5 7 30.00 1016 10 16 N/A
8:55 pm 20:55 Partly Cloudy 77 25.1 55 12.8 46 46 SSW 6 9 30.00 1016 10 16 N/A
9:15 pm 21:15 Partly Cloudy 77 25.1 56 13.6 49 49 SW 6 9 30.00 1016 10 16 N/A
9:35 pm 21:35 Clear 77 25.1 56 13.5 49 49 SW 5 7 30.00 1016 10 16 N/A
9:55 pm 21:55 Clear 77 25.1 56 13.6 49 49 SW 3 6 30.00 1016 10 16 N/A
10:15 pm 22:15 Partly Cloudy 74 23.6 57 13.7 54 54 N N/A 30.00 1016 10 16 N/A
10:35 pm 22:35 Mostly Cloudy 74 23.6 56 13.6 54 54 SW 3 6 30.00 1016 10 16 N/A
10:55 pm 22:55 Mostly Cloudy 74 23.6 55 12.8 51 51 SSW 3 6 30.00 1016 10 16 N/A
11:15 pm 23:15 Mostly Cloudy 74 23.6 55 12.7 51 51 SSW 3 6 30.00 1016 10 16 N/A
11:35 pm 23:35 Cloudy 74 23.6 55 12.6 50 50 S 3 6 30.00 1016 10 16 N/A
11:55 pm 23:55 Cloudy 74 23.6 55 12.5 50 50 N N/A 30.00 1016 10 16 N/A

Powered by AerisWeather